THOR ABLESTAR DEB

Satellite information

Favourite Embed

Satellite Type and Status

DEBRISIN ORBIT

Key statistics

Satellite THOR ABLESTAR DEB at a glance.

Uptime

23325

Days in orbit

Revolutions

≈ 14.1

Per day

Orbit

LEO

Low Earth Orbit

Inclination

66.8

Latest

Satellite identification and parameters

Extended collection of information and parameters for THOR ABLESTAR DEB.

Object identification

Identified? True

Debris? True

Object name: THOR ABLESTAR DEB

International designator: 1961-015MU

Object number (NORAD): 48816

Object ID (CCSDS): 48816

Country: UNITED STATES OF AMERICA (US)

Current information (Y/N): Y

RCS size: SMALL

Orbital parameters

Period: 102.291 minutes

Inclination: 66.8021 deg

SMA: 7245.23 km

Apoapsis: 937.461 km

Periapsis: 796.729 km

RAAN: 251.0734 deg

Eccentricy: 0.009712

Argument of periapsis: 141.6492 deg

Mean anomaly: 219.1554 deg

Mean motion: 14.07746634 rev/day

Mean motion (dot): 0.00002156 rev/day2

B* drag term: 0.0012635 1/REarth

Two-line elements (TLE)

Creation date: April 18, 2025, 2:23 a.m.

Reference frame: TEME

Reference center: EARTH

Epoch: April 17, 2025, 7:23 p.m. UTC

TLE line 0: 0 THOR ABLESTAR DEB

TLE line 1: 1 48816U 61015MU 25107.80821001 .00002156 00000-0 12635-2 0 9998

TLE line 2: 2 48816 66.8021 251.0734 0097120 141.6492 219.1554 14.07746634585940

Live tracking on map

Real-time ground track for satellite THOR ABLESTAR DEB.

In-orbit conjunctions

A list of the most updated potential collisions computed for object THOR ABLESTAR DEB.

Target Orbit TCA Probability of collision Miss distance Type
DELTA 1 DEB SSO 2024-10-07 13:50:09 0.0001036899 44.0 (m) DEBRIS

Associated space launch

THOR ABLESTAR DEB was lifted into orbit during the mission ‘Thor DM-21 Ablestar | Transit 4A & Injun-1 & Solrad 3’, on board a Thor DM-21 Ablestar space rocket.

The launch took place on June 29, 1961, 4:23 a.m. from Space Launch Complex 17B.

For more information about the launch, click the button.

Launch to space Thor DM-21 Ablestar | Transit 4A & Injun-1 & Solrad 3
Thor DM-21 Ablestar | Transit 4A & Injun-1 & Solrad 3

Agency: N/A

Status: Launch Successful

Launch date: June 29, 1961, 4:23 a.m. UTC

Rocket: Thor DM-21 Ablestar

Launch pad: Space Launch Complex 17B

Location: Cape Canaveral SFS, FL, USA

...

Latest news about this satellite

There are no fresh news available about this satellite. Check back as we update our databases every day.


Newsletter sign-up

Weekly statistics, charts and insights to help you stay on top of the space industry.